Overview Statistics Trail Chart Weather Telemetry Raw packets
 

This is the latest recevied weather packets stored in our database for station/object K7KAR-2. If no packets are shown the sender has not sent any weather packets the latest 10 day(s).

<< 14 15 16 17 18 19 20 >>
Time Temp. Humidity Pressure Rain* Wind** Luminosity Snow
1788518367 16.11° C 39% 1008.4 hPa 0 mm - 0 W/m² -
1788518062 16.11° C 38% 1008.5 hPa 0 mm - 0 W/m² -
1788517759 15.56° C 40% 1008.3 hPa 0 mm - 0 W/m² -
1788517454 15.56° C 41% 1008.3 hPa 0 mm - 0 W/m² -
1788517149 15° C 41% 1008.3 hPa 0 mm - 0 W/m² -
1788516846 15° C 42% 1008.1 hPa 0 mm - 0 W/m² -
1788516541 15° C 42% 1008.1 hPa 0 mm - 0 W/m² -
1788516237 15° C 42% 1008.2 hPa 0 mm - 0 W/m² -
1788515931 15° C 42% 1008.5 hPa 0 mm - 0 W/m² -
1788515626 15° C 42% 1008.4 hPa 0 mm - 0 W/m² -
1788515321 15.56° C 41% 1008.4 hPa 0 mm - 0 W/m² -
1788515017 15.56° C 41% 1008.6 hPa 0 mm - 0 W/m² -
1788514713 15° C 42% 1008.5 hPa 0 mm - 0 W/m² -
1788514413 14.44° C 44% 1008.6 hPa 0 mm - 0 W/m² -
1788514108 14.44° C 44% 1008.6 hPa 0 mm - 0 W/m² -
1788513805 13.89° C 45% 1008.6 hPa 0 mm - 0 W/m² -
1788513501 15.56° C 45% 1008.7 hPa 0 mm - 0 W/m² -
1788513201 15.56° C 40% 1008.9 hPa 0 mm - 0 W/m² -
1788512896 15.56° C 41% 1008.9 hPa 0 mm - 0 W/m² -
1788512592 15.56° C 40% 1008.7 hPa 0 mm - 0 W/m² -
1788512287 15.56° C 40% 1008.8 hPa 0 mm - 0 W/m² -
1788511982 16.11° C 40% 1008.8 hPa 0 mm - 0 W/m² -
1788511676 16.11° C 40% 1009.1 hPa 0 mm - 0 W/m² -
1788511372 16.11° C 40% 1008.8 hPa 0 mm - 0 W/m² -
1788511068 16.11° C 39% 1008.9 hPa 0 mm - 0 W/m² -

* Rain latest hour (hover to see other rain measurements)
** Current wind speed in m/s (hover to see current wind gust speed)